Regional Weather Roundup
Issued by NWS

Home | Current Version | Previous Version | Text Only | Print | Product List | Glossary On
Versions: 1 2 3 4 5 6 7 8 9 10 11 12 13 14 15 16 17 18 19 20 21 22 23 24 25 26 27 28 29 30 31 32 33 34 35 36 37 38 39 40 41 42 43 44 45 46 47 48 49 50
000
ASUS44 KJAN 060110
RWRMS

MISSISSIPPI HOURLY WEATHER ROUNDUP
NATIONAL WEATHER SERVICE JACKSON MS
800 PM CDT TUE MAY 05 2015

NOTE: "FAIR: INDICATES FEW OR NO CLOUDS BELOW 12,000 FEET WITH NO
SIGNIFICANT WEATHER AND/OR OBSTRUCTIONS TO VISIBILITY.

MSZ001>002-007>008-010>013-018>021-025>028-034>036-060200-
NORTHWEST MISSISSIPPI

CITY           SKY/WX    TMP DP  RH WIND       PRES   REMARKS
CLARKSDALE     FAIR      73  54  49 SE7       30.12S
CLEVELAND      FAIR      77  56  48 SE6       30.09F
GREENWOOD      CLEAR     72  60  66 CALM      30.11S
GREENVILLE     MOCLDY    79  52  38 SE8       30.08S
OLIVE BRANCH   PTCLDY    75  54  46 SE3       30.14R
OXFORD         FAIR      70  55  60 CALM      30.16R
TUNICA         CLEAR     73  52  46 SE6       30.12S
$$

MSZ003>006-009-014>017-022>024-029>033-037>039-060200-
NORTHEAST MISSISSIPPI

CITY           SKY/WX    TMP DP  RH WIND       PRES   REMARKS
COLUMBUS AFB   CLEAR     73  55  53 E3        30.14S
CORINTH        FAIR      73  57  56 CALM      30.15R
GOLDN TRIANGLE CLEAR     75  55  50 SE7       30.14R
STARKVILLE     FAIR      73  55  53 E3        30.14S
TUPELO         CLEAR     77  52  41 S5        30.15R
$$

MSZ040-058-060200-
CENTRAL MISSISSIPPI

CITY           SKY/WX    TMP DP  RH WIND       PRES   REMARKS
JACKSON INTL   CLEAR     73  58  59 E6        30.10S
JACKSON HAWKNS CLEAR     77  55  46 E5        30.10S
MERIDIAN KEY   CLEAR     74  55  51 E3        30.14R
MERIDIAN NAS   CLEAR     73  55  53 E5        30.14S
RAYMOND        FAIR      70  64  83 CALM      30.09S
VICKSBURG      CLEAR     74  60  61 E3        30.08R
$$

MSZ059>079-060200-
SOUTH MISSISSIPPI

CITY           SKY/WX    TMP DP  RH WIND       PRES   REMARKS
BROOKHAVEN     FAIR      73  61  64 CALM      30.12R
HATTIESBURG    CLOUDY    76  63  64 S5        30.13R
MCCOMB         CLEAR     73  58  59 SE7       30.10R
NATCHEZ        CLEAR     73  59  60 SE6       30.08S
PINE BELT      CLEAR     72  57  60 CALM      30.13R
$$

MSZ080>082-060200-
COASTAL MISSISSIPPI

CITY           SKY/WX    TMP DP  RH WIND       PRES   REMARKS
BAY ST LOUIS   CLEAR     72  57  60 MISG      30.12R
BILOXI         CLEAR     74  62  66 SE7       30.12R
PASCAGOULA     CLEAR     68  63  84 CALM      30.13R
GULFPORT       CLEAR     74  61  63 SE12      30.11R
$$


USA.gov is the U.S. government's official web portal to all federal, state and local government web resources and services.